Regional Weather Roundup
Issued by NWS

Home | Current Version | Previous Version | Text Only | Print | Product List | Glossary On
Versions: 1 2 3 4 5 6 7 8 9 10 11 12 13 14 15 16 17 18 19 20 21 22 23 24 25 26 27 28 29 30 31 32 33 34 35 36 37 38 39 40 41 42 43 44 45 46 47 48 49 50
000
ASUS43 KLOT 131108
RWRIL

ILLINOIS REGIONAL WEATHER ROUNDUP
NATIONAL WEATHER SERVICE CHICAGO/ROMEOVILLE IL
500 AM CST WED DEC 13 2017

NOTE: "FAIR" INDICATES FEW OR NO CLOUDS BELOW 12,000 FEET WITH NO
SIGNIFICANT WEATHER AND/OR OBSTRUCTIONS TO VISIBILITY.

* THESE STATIONS ARE NOT UNDER NWS QUALITY CONTROL. THEY ALSO MAY NOT
  REPORT WEATHER SUCH AS PRECIPITATION OR FOG.

ILZ001-002-007-009-015-016-024-131200-
NORTHWEST ILLINOIS

CITY           SKY/WX    TMP DP  RH WIND       PRES   REMARKS
MOLINE         CLOUDY    31  19  61 S9        29.59F WCI  23
STERLING*      MOCLDY    26  17  68 S8        29.63F WCI  18
SAVANNA*       MOCLDY    26  18  73 S14       29.58F WCI  14
$$

ILZ003-004-008-010-011-017-018-131200-
NORTH CENTRAL ILLINOIS

CITY           SKY/WX    TMP DP  RH WIND       PRES   REMARKS
ROCKFORD       CLOUDY    24  14  65 S15       29.66F WCI  11
FREEPORT*      CLOUDY    24  16  73 S18       29.61F WCI  10
ROCHELLE*      CLOUDY    24  16  73 S13       29.66F WCI  12
DE KALB*       CLOUDY    23  15  71 S15       29.69F WCI  10
PERU*          MOCLDY    24  11  57 S14       29.70F WCI  12
$$

ILZ005-006-012>014-019>023-131200-
NORTHEAST ILLINOIS

CITY           SKY/WX    TMP DP  RH WIND       PRES   REMARKS
CHICAGO-OHARE  CLOUDY    24  12  60 S12       29.71F WCI  13
CHICAGO-MIDWAY CLOUDY    25  11  55 S13       29.74F WCI  14
AURORA         CLOUDY    24  13  62 S10       29.71F WCI  14
LANSING*       CLOUDY    23  13  65 S13       29.76F WCI  11
JOLIET*        CLOUDY    27  11  51 S9        29.74F WCI  18
WAUKEGAN       CLOUDY    23  11  60 S10       29.69F WCI  12
DUPAGE AIRPORT CLOUDY    23  13  65 S13       29.70F WCI  11
KANKAKEE*      CLOUDY    25   9  50 S9        29.79F WCI  16
WHEELING       CLOUDY    24  12  60 S13       29.73F WCI  12
MORRIS*        CLOUDY    26  11  53 S14       29.72F WCI  14
ROMEOVILLE*    CLOUDY    24  12  59 S13       29.73F WCI  13
NORTHERLY ISL    N/A     24  10  55 S9          N/A  WCI  15
$$

LMZ740>746-131200-
SOUTHERN LAKE MICHIGAN

STATION/POSITION SKY/WX   TEMP    WIND        PRES    VSBY  WAVE
                          AIR SEA DIR/SP/G                  HT/PER
                          (F)     (DEG/KT/KT) (MB)    (MI)  (FT/S)
HARRISON CRIB              25     180/ 17/ 19   N/A
BURNHAM HARBOR             24     170/  7/ 11   N/A
CALUMET HARBOR             23     170/  9/ 14 1006.8F
BURNS HARBOR               23     180/ 10/ 15 1009.1F
MICHIGAN CITY              20     150/ 13/ 16   N/A
$$

ILZ025>027-034>036-040-047-049-050-058-095>099-131200-
WEST-CENTRAL ILLINOIS

CITY           SKY/WX    TMP DP  RH WIND       PRES   REMARKS
QUINCY         CLOUDY    29  19  66 S16       29.68F WCI  17
GALESBURG*     CLOUDY    28  20  70 S12G21    29.65F WCI  18
MACOMB*        CLOUDY    28  18  66 S13       29.69F WCI  17
JACKSONVILLE*  CLOUDY    28  14  54 S10       29.75F WCI  19
PITTSFIELD*    CLEAR     30  18  60 S10G17    29.73F WCI  21
$$

ILZ028>032-037-038-041>044-048-051>054-059>061-131200-
CENTRAL ILLINOIS

CITY           SKY/WX    TMP DP  RH WIND       PRES   REMARKS
PONTIAC        MOCLDY    26   9  49 S10       29.77F WCI  15
BLOOMINGTON    CLOUDY    25  12  58 S13       29.76F WCI  14
DECATUR        CLOUDY    27  10  49 S14       29.81F WCI  16
PEORIA         PTCLDY    25  12  58 S9        29.73F WCI  15
LACON*         CLOUDY    27  11  52 S8        29.70F WCI  18
LINCOLN*       CLEAR     26  13  57 S10       29.77F WCI  16
SPRINGFIELD    CLEAR     28  13  53 S10       29.78F WCI  19
TAYLORVILLE    PTCLDY    25  12  57 S8        29.81F WCI  16
$$

ILZ033-039-045-046-055>057-062-063-131200-
EAST-CENTRAL ILLINOIS

CITY           SKY/WX    TMP DP  RH WIND       PRES   REMARKS
CHAMPAIGN      CLOUDY    24  10  55 S14       29.81F WCI  12
DANVILLE*      CLOUDY    24   9  53 S8        29.80F WCI  14
RANTOUL*       CLOUDY    26  13  58 S9        29.80F WCI  16
MATTOON        CLOUDY    24  11  57 S10       29.83F WCI  14
PARIS*         CLOUDY    24  11  56 S9        29.86F WCI  15
$$

ILZ079-100>102-131200-
SOUTHWEST ILLINOIS

CITY           SKY/WX    TMP DP  RH WIND       PRES   REMARKS
ALTON          CLEAR     25  13  62 S8        29.84F WCI  16
BELLEVILLE     CLEAR     25  11  56 S6        29.86F WCI  18
CAHOKIA*       CLEAR     30  12  47 S7        29.85F WCI  23
SPARTA*        CLEAR     27  13  56 S9        29.91F WCI  17
$$

ILZ064>066-069>071-074>076-080>082-084>086-088>090-092>094-131200-
SOUTH-CENTRAL ILLINOIS

CITY           SKY/WX    TMP DP  RH WIND       PRES   REMARKS
CARBONDALE     CLEAR     25  14  63 S9        29.95F WCI  15
CAIRO*         CLEAR     29  16  59 S8        29.98F WCI  21
EFFINGHAM*     PTCLDY    24  11  57 S7        29.89F WCI  16
MARION         CLEAR     24  13  63 S7        29.96S WCI  16
MT. VERNON     CLEAR     21  14  74 SW5       29.92F WCI  15
CENTRALIA*     PTCLDY    27  14  59 CALM      29.89F
SALEM*         PTCLDY    26  12  54 S9        29.88F WCI  17
METROPOLIS*    CLOUDY    27  14  58 S7        29.98F WCI  19
$$

ILZ067-068-072-073-078-083-087-091-131200-
SOUTHEAST ILLINOIS

CITY           SKY/WX    TMP DP  RH WIND       PRES   REMARKS
LAWRENCEVILLE  CLEAR     21  13  71 S7        29.92F WCI  12
FLORA*         CLOUDY    26  16  66 S8        29.91F WCI  17
FAIRFIELD*     CLOUDY    24  14  67 S6        29.91F WCI  17
HARRISBURG*    CLOUDY    24  13  62 SW3       29.96F
ROBINSON*      CLOUDY    19  11  70 S6        29.92F WCI  11
CARMI*         CLOUDY    23  14  68 S7        29.94F WCI  15
$$

ABBREVIATIONS USED IN REMARKS
   TC - TEMPERATURE IN CELSIUS
  WCI - WIND CHILL INDEX
   HX - HEAT INDEX
  VSB - VISIBILITY
$$





USA.gov is the U.S. government's official web portal to all federal, state and local government web resources and services.